{"data":{"norad_id":52343,"epoch":"2026-09-20T04:00:03.000096Z","epoch_age_seconds":88449,"freshness":"FRESH","line1":"1 52343U 22045N   26263.16670139  .00001531  00000+0  54800-4 0  9992","line2":"2 52343  53.1597  53.1131 0001078  79.9266 156.3846 15.35389184  5834","mean_motion":15.35389184,"eccentricity":0.0001078,"inclination_deg":53.1597,"raan_deg":53.1131,"arg_perigee_deg":79.9266,"mean_anomaly_deg":156.3846,"bstar":5.48e-5,"rev_number":583,"period_min":93.787296081408,"perigee_km":459.02762966348,"apogee_km":460.50188128196,"semimajor_km":6837.9017554727,"source":"CELESTRAK","updated_at":"2026-09-20T09:00:40.023199Z"}}